Location: Oberkirch
(48.5323°N, 8.0787°E)
Time: 16:50:07
(UTC+00:00)

SL-24 R/B - RUBIN 2 - Pass Details

Date: 15 February 2026
Orbit: 603 x 984 km, 64.6° (Epoch: 8 March)

Event Time Altitude Azimuth Distance (km) Brightness Sun altitude
Exits shadow 02:51:30 14° 33° (NNE) 1,799 6.4 -37.0°
Drops below altitude 10° 02:52:05 10° 34° (NE) 2,024 6.8 -36.9°
Sets 02:54:19 0° 38° (NE) 2,905 7.8 -36.6°
